N3CAN-10 Weather Reports


Display with metric or nautical units.
time (UTC)temp
F
wind
direction
speed
MPH
gust
MPH
rain 1hr
in
rain 24hr
in
rain mn
in
humidity
%
barometer
mb
20260504210502 71 0.0 0.0 0.00 0.00 0.00 27
20260504203502 71 0.0 0.0 0.00 0.00 0.00 26
20260504200502 71 0.0 0.0 0.00 0.00 0.00 28
20260504193501 70 0.0 0.0 0.00 0.00 0.00 29
20260504190501 69 0.0 0.0 0.00 0.00 0.00 29
20260504183501 68 0.0 0.0 0.00 0.00 0.00 28
20260504180501 69 0.0 0.0 0.00 0.00 0.00 28
20260504173501 70 0.0 0.0 0.00 0.00 0.00 26
20260504170501 72 0.0 0.0 0.00 0.00 0.00 27
20260504150502 63 0.0 0.0 0.00 0.00 0.00 42
20260504140501 57 0.0 0.0 0.00 0.00 0.00 52
20260504130501 50 0.0 0.0 0.00 0.00 0.00 63
20260504110502 42 0.0 0.0 0.00 0.00 0.00 69
20260504100502 40 0.0 0.0 0.00 0.00 0.00 67
20260504080502 38 0.0 0.0 0.00 0.00 0.00 65
20260504050501 35 0.0 0.0 0.00 0.00 0.00 57
20260504043501 36 0.0 0.0 0.00 0.00 0.00 56
20260504040501 37 0.0 0.0 0.00 0.00 0.00 55
20260504033502 38 0.0 0.0 0.00 0.00 0.00 52
20260504030502 39 0.0 0.0 0.00 0.00 0.00 52
20260504023502 40 0.0 0.0 0.00 0.00 0.00 48
20260504020501 40 0.0 0.0 0.00 0.00 0.00 47
20260504013501 42 0.0 0.0 0.00 0.00 0.00 46
20260504010501 44 0.0 0.0 0.00 0.00 0.00 45
20260504003501 46 0.0 0.0 0.00 0.00 0.00 45
20260504000501 47 0.0 0.0 0.00 0.00 0.00 44
20260503233501 48 0.0 0.0 0.00 0.00 0.00 43
20260503230502 49 0.0 0.0 0.00 0.00 0.00 43
20260503223502 49 0.0 0.0 0.00 0.00 0.00 41
20260503220502 50 0.0 0.0 0.00 0.00 0.00 41
20260503213501 50 0.0 0.0 0.00 0.00 0.00 41